Tasman — ZDKI2 — position and weather

sailwx.info

Track history (hours):
 
Tides and Currents Weather Stations Pressure Air Temp Water Temp Dewpoint Dewpoint Depression Visibility Wind Speed Wind Dir Waves Ship Positions

Tasman

Last reported at 2014-Oct-24 16:33 UTC. Time now 2014-Oct-24 20:41 UTC.
Position N 53°34' W 004°00'.

Length 90 m; draft 4 m.

Type: Ship. MMSI: 23617000.

Date/timePositionNaut miles runAvg speedWind from/ knotsBaromVisibWave heightAir tempDewpointWater temp
2014-Oct-24 16:33N 53°34' W 004°00'1313.3
2014-Oct-24 15:33N 53°34' W 003°38'1212.1
2014-Oct-24 14:33N 53°32' W 003°18'1211.6
2014-Oct-24 13:33N 53°26' W 003°01'7 7.1
2014-Oct-24 12:30N 53°19' W 002°57'4 3.7
2014-Oct-24 11:28N 53°17' W 002°51'  
2014-Oct-20 10:32N 53°19' W 002°57'2 1.7
2014-Oct-20 09:33N 53°21' W 002°58'5 5.3
2014-Oct-20 08:33N 53°26' W 003°01'8 7.9
2014-Oct-20 07:33N 53°32' W 003°10'6 5.2
2014-Oct-20 06:29N 53°31' W 003°19'  
2014-Oct-16 15:20N 38°13' W 009°43'911.3
2014-Oct-16 14:33N 38°04' W 009°40'1111.4
2014-Oct-16 13:33N 37°53' W 009°37'1111.3
2014-Oct-16 12:33N 37°42' W 009°34'7110.1
2014-Oct-16 05:30N 36°40' W 008°50'1010.7
2014-Oct-16 04:33N 36°37' W 008°38'16010.6
2014-Oct-15 13:23N 36°01' W 005°25'6 6.8
2014-Oct-15 12:33N 36°02' W 005°18'  
Track history (hours):
 
Tides and Currents Weather Stations Pressure Air Temp Water Temp Dewpoint Dewpoint Depression Visibility Wind Speed Wind Dir Waves Ship Positions

Tasman

Last reported at 2014-Oct-24 16:33 UTC. Time now 2014-Oct-24 20:41 UTC.
Position N 53°34' W 004°00'.

Length 90 m; draft 4 m.

Type: Ship. MMSI: 23617000.

Date/timePositionNaut miles runAvg speedWind from/ knotsBaromVisibWave heightAir tempDewpointWater temp
2014-Oct-24 16:33N 53°34' W 004°00'1313.3
2014-Oct-24 15:33N 53°34' W 003°38'1212.1
2014-Oct-24 14:33N 53°32' W 003°18'1211.6
2014-Oct-24 13:33N 53°26' W 003°01'7 7.1
2014-Oct-24 12:30N 53°19' W 002°57'4 3.7
2014-Oct-24 11:28N 53°17' W 002°51'  
2014-Oct-20 10:32N 53°19' W 002°57'2 1.7
2014-Oct-20 09:33N 53°21' W 002°58'5 5.3
2014-Oct-20 08:33N 53°26' W 003°01'8 7.9
2014-Oct-20 07:33N 53°32' W 003°10'6 5.2
2014-Oct-20 06:29N 53°31' W 003°19'  
2014-Oct-16 15:20N 38°13' W 009°43'911.3
2014-Oct-16 14:33N 38°04' W 009°40'1111.4
2014-Oct-16 13:33N 37°53' W 009°37'1111.3
2014-Oct-16 12:33N 37°42' W 009°34'7110.1
2014-Oct-16 05:30N 36°40' W 008°50'1010.7
2014-Oct-16 04:33N 36°37' W 008°38'16010.6
2014-Oct-15 13:23N 36°01' W 005°25'6 6.8
2014-Oct-15 12:33N 36°02' W 005°18'  

Dump ship's entire track history